FW6376 Weather Reports


time (UTC)temp
C
wind
direction
speed
KPH
gust
KPH
rain 1hr
cm
rain 24hr
cm
rain mn
cm
humidity
%
barometer
mb
20260504081513 1 275 0.0 0.0 0.00 0.00 0.00 70 1010.2
20260504060111 0 275 0.0 1.6 0.00 0.00 0.00 68 1010.4
20260504044541 -1 275 0.0 0.0 0.00 0.00 0.00 70 1010.5
20260504043037 -1 275 0.0 0.0 0.00 0.00 0.00 69 1010.7
20260504041536 -1 275 0.0 1.6 0.00 0.00 0.00 68 1010.7
20260504040034 -1 275 0.0 1.6 0.00 0.00 0.00 68 1010.7
20260504034533 -1 275 0.0 0.0 0.00 0.00 0.00 67 1010.6
20260504033037 -1 275 0.0 1.6 0.00 0.00 0.00 67 1010.4
20260504031531 -1 275 0.0 1.6 0.00 0.00 0.00 66 1010.5
20260504030028 0 275 0.0 1.6 0.00 0.00 0.00 66 1010.5
20260504024526 0 275 0.0 0.0 0.00 0.00 0.00 66 1010.4
20260504023024 0 275 0.0 1.6 0.00 0.00 0.00 66 1010.5
20260504021522 0 275 0.0 1.6 0.00 0.00 0.00 66 1010.5
20260504020020 0 275 0.0 1.6 0.00 0.00 0.00 66 1010.4
20260504014535 1 275 0.0 0.0 0.00 0.00 0.00 64 1010.3
20260504013015 1 275 0.0 0.0 0.00 0.00 0.00 64 1010.3
20260504011512 2 275 0.0 0.0 0.00 0.00 0.00 63 1010.0
20260504010011 2 275 0.0 0.0 0.00 0.03 0.00 60 1009.9
20260504004511 3 275 0.0 0.0 0.00 0.03 0.00 59 1009.8
20260504003011 4 275 0.0 0.0 0.00 0.03 0.00 58 1009.6
20260504001510 5 275 0.0 0.0 0.00 0.03 0.00 55 1009.6
20260504000022 6 275 0.0 0.0 0.00 0.03 0.00 54 1009.6
20260503234509 7 275 0.0 0.0 0.00 0.03 0.00 51 1009.4
20260503233009 8 275 0.0 8.0 0.00 0.03 0.00 42 1009.1
20260503231508 8 149 0.0 4.8 0.00 0.03 0.00 40 1009.0
20260503230008 8 50 0.0 6.4 0.00 0.03 0.00 37 1009.0
20260503224507 8 274 0.0 6.4 0.00 0.03 0.00 37 1009.0
20260503223006 9 268 0.0 6.4 0.00 0.03 0.00 36 1009.0
20260503221506 8 331 0.0 4.8 0.00 0.03 0.00 38 1009.0
20260503220006 9 331 1.6 8.0 0.00 0.03 0.00 35 1008.9
20260503214515 9 315 0.0 8.0 0.00 0.03 0.00 37 1008.8
20260503213004 9 264 3.2 9.7 0.00 0.03 0.00 36 1008.9
20260503211503 9 339 0.0 11.3 0.00 0.03 0.00 34 1008.9
20260503210009 9 338 0.0 17.7 0.00 0.03 0.00 35 1008.9
20260503204509 9 141 3.2 19.3 0.00 0.03 0.00 35 1008.9
20260503203001 10 257 4.8 17.7 0.00 0.03 0.00 33 1008.6
20260503201600 9 49 0.0 19.3 0.00 0.03 0.00 32 1008.6
20260503200059 10 155 4.8 16.1 0.00 0.03 0.00 31 1008.6
20260503194620 10 34 1.6 19.3 0.00 0.03 0.00 32 1008.6
20260503193058 10 80 1.6 17.7 0.00 0.03 0.00 30 1008.7
20260503191602 9 263 1.6 19.3 0.00 0.03 0.00 31 1008.7
20260503184557 10 315 3.2 12.9 0.00 0.10 0.00 30 1008.4
20260503183104 9 291 4.8 11.3 0.00 0.10 0.00 31 1008.7
20260503181552 9 355 3.2 16.1 0.00 0.10 0.00 32 1008.7
20260503180104 9 310 3.2 19.3 0.00 0.10 0.00 31 1008.6
20260503174550 9 11 1.6 19.3 0.00 0.20 0.00 31 1008.7
20260503173139 10 240 3.2 17.7 0.00 0.20 0.00 33 1008.4
20260503171549 10 220 1.6 9.7 0.00 0.20 0.00 34 1008.5